Regional Weather Roundup
Issued by NWS

Home | Current Version | Previous Version | Text Only | Print | Product List | Glossary Off
Versions: 1 2 3 4 5 6 7 8 9 10 11 12 13 14 15 16 17 18 19 20 21 22 23 24 25 26 27 28 29 30 31 32 33 34 35 36 37 38 39 40 41 42 43 44 45 46 47 48 49 50

000
ASUS43 KMKX 211511
RWRWI

WISCONSIN REGIONAL WEATHER ROUNDUP
NATIONAL WEATHER SERVICE MILWAUKEE/SULLIVAN WI
1000 AM CDT MON AUG 21 2017

NOTE: "FAIR" INDICATES FEW OR NO CLOUDS BELOW 12,000 FEET WITH NO
SIGNIFICANT WEATHER AND/OR OBSTRUCTIONS TO VISIBILITY.

WIZ001-002-006>008-014>016-023>028-211600-
NORTHWEST WISCONSIN

CITY           SKY/WX    TMP DP  RH WIND       PRES   REMARKS
SUPERIOR ARPT    N/A     69  60  74 CALM      30.03F
ASHLAND        CLOUDY    70  59  68 S6        30.05F
HAYWARD        MOSUNNY   69  59  70 VRB5      30.06F
SIREN          SUNNY     71  57  61 SE3       30.04F
CUMBERLAND     CLOUDY    68  55  64 SE6       30.05F
RICE LAKE      CLOUDY    69  60  73 E6        30.05F
CHETEK         CLOUDY    67  62  84 E8        30.06F
LADYSMITH      CLOUDY    72  58  63 E5        30.07F
EAU CLAIRE     TSTM      66  63  90 NE3       30.02F
MENOMONIE      CLOUDY    65  65  99 E7        30.03F
NEW RICHMOND   PTSUNNY   71  60  68 E5        30.01F
OSCEOLA        MOSUNNY   71  60  67 E7        30.03F
$$

WIZ003>005-009-010-017-018-211600-
NORTH CENTRAL WISCONSIN

CITY           SKY/WX    TMP DP  RH WIND       PRES   REMARKS
MANITOWISH WTR MOSUNNY   70  57  62 E3        30.08S
ARBOR VITAE    SUNNY     72  55  55 CALM      30.09R
WOODRUFF       SUNNY     72  55  55 CALM      30.09R
RHINELANDER    CLOUDY    71  57  61 E3        30.08F
EAGLE RIVER    SUNNY     71  52  50 SE3       30.09R
LAND O LAKES   CLOUDY    70  53  53 CALM      30.11R
PHILLIPS       PTSUNNY   69  58  68 SE3       30.07R
TOMAHAWK         N/A     70  58  65 CALM      30.09R
MEDFORD        CLOUDY    68  61  78 E7        30.07F
MERRILL        CLOUDY    70  63  78 CALM      30.08R
$$

WIZ029-030-035-036-043>047-211600-
CENTRAL WISCONSIN

CITY           SKY/WX    TMP DP  RH WIND       PRES   REMARKS
WAUSAU         LGT RAIN  67  63  87 E6        30.05F
MOSINEE        CLOUDY    66  66 100 CALM      30.08S FOG
MARSHFIELD     CLOUDY    73  67  81 E6        30.05F
STEVENS POINT  CLOUDY    69  68  99 CALM      30.06F
WAUPACA        CLOUDY    73  69  87 CALM      30.06F
WAUTOMA        CLOUDY    70  67  90 MISG      30.08S
WISC RAPIDS    CLOUDY    71  69  93 E5        30.06F
CAMP DOUGLAS   PTSUNNY   70  68  94 S9        30.06R
$$

WIZ011>013-019>022-031-037>040-048>050-211600-
NORTHEAST WISCONSIN

CITY           SKY/WX    TMP DP  RH WIND       PRES   REMARKS
ANTIGO         CLOUDY    70  61  73 CALM      30.08S
SHAWANO        CLOUDY    74  66  75 E3        30.05F
OCONTO         PTSUNNY   73  65  74 NE3       30.05S
STURGEON BAY   CLOUDY    74  70  87 VRB5      30.06R
GREEN BAY      LGT RAIN  72  71  97 SW3       30.06S
MANITOWOC      MOSUNNY   76  66  71 W7        30.06S
APPLETON       CLOUDY    72  68  88 W5        30.06S
CLINTONVILLE   CLOUDY    72  68  88 CALM      30.05F
OSHKOSH        CLOUDY    74  67  78 VRB5      30.07R
$$

WIZ032>034-041-042-053>061-211600-
SOUTHWEST WISCONSIN

CITY           SKY/WX    TMP DP  RH WIND       PRES   REMARKS
LA CROSSE      CLOUDY    77  68  73 SE3       30.02F
SPARTA         CLOUDY    70  66  85 SE3       30.06S
VIROQUA        CLOUDY    68  68 100 CALM      30.05F
BOSCOBEL       CLOUDY    70  66  87 VRB3      30.04F
PRAIRIE DU CHI CLOUDY    71  66  83 E3        30.03R
PLATTEVILLE    CLOUDY    70  70 100 E10       30.03F
$$

WIZ056-057-062-063-064-067-068-211600-
SOUTH CENTRAL WISCONSIN

CITY           SKY/WX    TMP DP  RH WIND       PRES   REMARKS
REEDSBURG      CLOUDY    71  69  93 CALM      30.07F
BARABOO/DELLS  CLOUDY    72  66  83 CALM      30.09S
LONE ROCK      CLOUDY    69  68  96 SE3       30.06F
MINERAL POINT  CLOUDY    70  70 100 CALM      30.07F
MADISON        CLOUDY    71  67  87 SW6       30.09R
MIDDLETON      CLOUDY    72  71  97 NW7       30.10R
WATERTOWN      CLOUDY    72  72 100 W3        30.07F
MONROE         CLOUDY    72  68  88 CALM      30.09F
JANESVILLE     PTSUNNY   73  73 100 W8        30.10R
$$

WIZ051-052-058>065-066-070>072-211600-
SOUTHEAST WISCONSIN

CITY           SKY/WX    TMP DP  RH WIND       PRES   REMARKS
MILWAUKEE      CLOUDY    79  69  71 W9        30.06R HX  81
WAUKESHA       SUNNY     73  68  83 W7        30.09S
MILWAUKEE/TIMM SUNNY     75  66  73 W7        30.07R
RACINE         CLOUDY    78  71  79 W9        30.07R HX  80
KENOSHA        CLOUDY    77  70  79 W8        30.07S
FOND DU LAC    CLOUDY    75  68  78 W3        30.07S
SHEBOYGAN      CLOUDY    76  70  82 NW8       30.06R
WEST BEND      CLOUDY    73  70  88 W8        30.07S
JUNEAU         CLOUDY    70  69  94 SW3       30.09S
$$

LSZ147-162-211600-
LAKE SUPERIOR

STATION/POSITION TIME  TEMP    WIND        PRES    WAVE
                       AIR SEA DIR/SP/G            HT/PER
                 (UTC) (F)     (DEG/KT/KT) (MB)    (FT/S)
W MID LAKE BUOY  1450   61 60  260/  2/  4 1016.9F   0
DEVILS ISLAND    1500   63     210/  5/  6 1017.3F
SAXON HARBOR     1430   67      30/  4/  5 1017.6R
$$

LMZ867-665-643>646-211600-
LAKE MICHIGAN

STATION/POSITION TIME  TEMP    WIND        PRES    WAVE
                       AIR SEA DIR/SP/G            HT/PER
                 (UTC) (F)     (DEG/KT/KT) (MB)    (FT/S)
S GREEN BAY BUOY 1500   70 72  270/  4/  4 1017.4
N MID LAKE BUOY  1450   69 68   CALM  /  2 1017.4F   1/ 4
NORTHPORT PIER   1440   73     310/  3/  4 1016.9F
KEWAUNEE LAKESHO 1448   74     270/  3/  3 1016.7S
SHEBOYGAN LAKESH 1500   71     130/  1/  2 1017.4R
PORT WASHINGTON  1440   73     160/  2/  2 1018.6R
ATWATER BUOY     1409   70 70  290/  2/  2 1018.1R
MILWAUKEE LAKESH 1450   76     300/  7/  9   N/A
S MID LAKE BUOY  1450   72 72  200/  6/  6 1017.6R   1
KENOSHA   LAKESH 1500   77     280/ 10/ 14 1017.6
$$

TC  - TEMPERATURE IN CELSIUS
VSB - VISIBILITY IN STATUTE MILES
WCI - WIND CHILL INDEX
HX  - HEAT INDEX





USA.gov is the U.S. government's official web portal to all federal, state and local government web resources and services.